Terug naar catalogus

FENGYUN 1C DEB

ActiefLEO
NORAD 32178·DEBRIS·🇨🇳 China

Gelanceerd May 10, 1999 vanaf Taiyuan Satellite Launch Center

Loading…

Volgende Passages (komende 24 uur)

TLE

VersSource: Space-Track

Epoch: Sep 14, 2026, 08:56 UTC

1 32178U 99025CTY 26257.37277648  .00001175  00000-0  51299-3 0  9995
2 32178 100.2895 310.4620 0092211 284.2423  74.8523 14.24112864679255

Volg FENGYUN 1C DEB in realtime met AllMySat

Download on the App Store